EZY52F EGBB-LEPA

Flight info

Callsign EZY52F
Flight time N/A
Altitude 35000
Route CPT UN859 SOPIL DCT BALAN DCT EVPOK DCT NARAK DCT GAI DCT LOMRA DCT ROCAN DCT IBRAP DCT LUKEV N13 LORES
Aircraft A320/M-SDE3FGHIRWY/LB1

Departure

Time 2026-04-29 19:00
Airport Birmingham Airport (EGBB)

Arrival

Time N/A
Airport Palma de Mallorca Airport (LEPA)
Time Latitude Longitude Altitude Speed Heading
2026-04-29 18:30 52.45270 -1.73817 331 ft 0 kts 146°
2026-04-29 18:45 52.45270 -1.73818 330 ft 0 kts 143°
2026-04-29 18:48 52.45284 -1.73834 326 ft 4 kts 149°
2026-04-29 18:49 52.45303 -1.73854 326 ft 4 kts 148°
2026-04-29 18:49 52.45326 -1.73871 329 ft 4 kts 171°
2026-04-29 18:49 52.45351 -1.73869 328 ft 4 kts 208°
2026-04-29 18:49 52.45366 -1.73851 327 ft 0 kts 236°
2026-04-29 18:50 52.45351 -1.73886 325 ft 3 kts 236°
2026-04-29 18:50 52.45349 -1.73890 325 ft 0 kts 236°
2026-04-29 18:53 52.45348 -1.73892 325 ft 1 kts 236°
2026-04-29 18:53 52.45333 -1.73930 327 ft 7 kts 235°
2026-04-29 18:53 52.45308 -1.74023 328 ft 11 kts 271°
2026-04-29 18:53 52.45349 -1.74160 327 ft 15 kts 297°
2026-04-29 18:54 52.45393 -1.74301 326 ft 14 kts 296°
2026-04-29 18:54 52.45433 -1.74435 323 ft 13 kts 296°
2026-04-29 18:54 52.45472 -1.74560 323 ft 12 kts 301°
2026-04-29 18:54 52.45533 -1.74635 323 ft 10 kts 326°
2026-04-29 18:55 52.45590 -1.74699 324 ft 9 kts 325°
2026-04-29 18:55 52.45647 -1.74764 324 ft 12 kts 326°
2026-04-29 18:55 52.45721 -1.74846 324 ft 15 kts 325°
2026-04-29 18:55 52.45824 -1.74960 323 ft 20 kts 326°
2026-04-29 18:56 52.45956 -1.75106 321 ft 25 kts 326°
2026-04-29 18:56 52.46115 -1.75283 319 ft 29 kts 325°
2026-04-29 18:56 52.46222 -1.75418 318 ft 12 kts 283°
2026-04-29 18:56 52.46202 -1.75493 318 ft 0 kts 232°
2026-04-29 18:57 52.46202 -1.75494 318 ft 1 kts 232°
2026-04-29 18:57 52.46196 -1.75505 318 ft 2 kts 234°
2026-04-29 18:58 52.46184 -1.75535 318 ft 5 kts 235°
2026-04-29 18:58 52.46159 -1.75595 318 ft 6 kts 236°
2026-04-29 18:58 52.46124 -1.75621 318 ft 5 kts 163°
2026-04-29 18:58 52.46107 -1.75604 317 ft 0 kts 147°
2026-04-29 18:59 52.46106 -1.75603 317 ft 2 kts 147°
2026-04-29 18:59 52.45923 -1.75399 321 ft 68 kts 146°
2026-04-29 18:59 52.45345 -1.74755 323 ft 129 kts 146°
2026-04-29 19:00 52.44503 -1.73780 487 ft 160 kts 144°
2026-04-29 19:00 52.43541 -1.72726 1204 ft 160 kts 137°
2026-04-29 19:00 52.42652 -1.71730 1736 ft 164 kts 137°
2026-04-29 19:00 52.41678 -1.70629 2048 ft 182 kts 137°
2026-04-29 19:01 52.40411 -1.69794 2458 ft 209 kts 159°
2026-04-29 19:01 52.38961 -1.69243 3346 ft 205 kts 158°
2026-04-29 19:01 52.37644 -1.68513 4208 ft 197 kts 146°
2026-04-29 19:01 52.36405 -1.67513 5006 ft 198 kts 147°
2026-04-29 19:02 52.35152 -1.66503 5765 ft 201 kts 148°
2026-04-29 19:02 52.34272 -1.65853 6034 ft 217 kts 150°
2026-04-29 19:02 52.32275 -1.64495 6553 ft 246 kts 153°
2026-04-29 19:02 52.30656 -1.63441 7230 ft 254 kts 154°
2026-04-29 19:03 52.28997 -1.62372 7998 ft 259 kts 154°
2026-04-29 19:03 52.27355 -1.61308 8788 ft 263 kts 154°
2026-04-29 19:03 52.25597 -1.60166 9605 ft 267 kts 154°
2026-04-29 19:03 52.23842 -1.59081 10386 ft 272 kts 157°
2026-04-29 19:04 52.22030 -1.58118 11099 ft 275 kts 159°
2026-04-29 19:04 52.20198 -1.57211 11830 ft 278 kts 160°
2026-04-29 19:04 52.18327 -1.56303 12569 ft 280 kts 160°
2026-04-29 19:04 52.16448 -1.55390 13319 ft 283 kts 160°
2026-04-29 19:05 52.14558 -1.54460 14044 ft 286 kts 160°
2026-04-29 19:05 52.12649 -1.53512 14678 ft 288 kts 160°
2026-04-29 19:05 52.10722 -1.52553 15320 ft 291 kts 160°
2026-04-29 19:05 52.08772 -1.51572 15944 ft 294 kts 159°
2026-04-29 19:06 52.06823 -1.50587 16559 ft 296 kts 159°
2026-04-29 19:06 52.04839 -1.49585 17179 ft 299 kts 159°
2026-04-29 19:06 52.00831 -1.47567 18365 ft 304 kts 159°
2026-04-29 19:07 51.98792 -1.46547 18906 ft 307 kts 159°
2026-04-29 19:07 51.97431 -1.45866 19209 ft 311 kts 159°
2026-04-29 19:07 51.94647 -1.44473 19887 ft 315 kts 159°
2026-04-29 19:07 51.92545 -1.43429 20409 ft 317 kts 160°
2026-04-29 19:08 51.90430 -1.42379 20924 ft 320 kts 160°
2026-04-29 19:08 51.88259 -1.41303 21445 ft 322 kts 160°
2026-04-29 19:08 51.86109 -1.40233 21959 ft 325 kts 160°
2026-04-29 19:08 51.83944 -1.39152 22469 ft 327 kts 160°
2026-04-29 19:09 51.81758 -1.38057 22980 ft 330 kts 161°
2026-04-29 19:09 51.79555 -1.36958 23503 ft 332 kts 161°
2026-04-29 19:09 51.77363 -1.35870 23938 ft 336 kts 161°
2026-04-29 19:09 51.75083 -1.34741 24347 ft 338 kts 161°
2026-04-29 19:10 51.72842 -1.33632 24763 ft 340 kts 161°
2026-04-29 19:10 51.70539 -1.32496 25144 ft 343 kts 161°
2026-04-29 19:10 51.68241 -1.31364 25538 ft 345 kts 161°
2026-04-29 19:10 51.65943 -1.30229 25951 ft 347 kts 161°
2026-04-29 19:11 51.63653 -1.29096 26333 ft 350 kts 161°
2026-04-29 19:11 51.61321 -1.27944 26703 ft 353 kts 161°
2026-04-29 19:11 51.58939 -1.26770 27048 ft 356 kts 161°
2026-04-29 19:11 51.56561 -1.25598 27477 ft 357 kts 161°
2026-04-29 19:12 51.54170 -1.24424 27776 ft 361 kts 161°
2026-04-29 19:12 51.51690 -1.23214 28136 ft 365 kts 161°
2026-04-29 19:12 51.49262 -1.21994 28456 ft 367 kts 157°
2026-04-29 19:12 51.48457 -1.21469 28557 ft 368 kts 153°
2026-04-29 19:13 51.44525 -1.18579 28786 ft 381 kts 153°
2026-04-29 19:13 51.42089 -1.16774 28917 ft 389 kts 153°
2026-04-29 19:13 51.39618 -1.14945 29059 ft 396 kts 153°
2026-04-29 19:13 51.37089 -1.13076 29199 ft 403 kts 154°
2026-04-29 19:14 51.34530 -1.11194 29333 ft 409 kts 153°
2026-04-29 19:14 51.31922 -1.09282 29474 ft 415 kts 153°
2026-04-29 19:14 51.29281 -1.07351 29612 ft 421 kts 153°
2026-04-29 19:14 51.26591 -1.05386 29754 ft 426 kts 153°
2026-04-29 19:15 51.23889 -1.03414 29891 ft 431 kts 153°
2026-04-29 19:15 51.21141 -1.01406 30056 ft 435 kts 153°
2026-04-29 19:15 51.18384 -0.99392 30273 ft 438 kts 154°
2026-04-29 19:15 51.15598 -0.97361 30430 ft 442 kts 154°
2026-04-29 19:16 51.12803 -0.95332 30692 ft 442 kts 154°
2026-04-29 19:16 51.10012 -0.93310 31045 ft 440 kts 154°
2026-04-29 19:16 51.07212 -0.91293 31359 ft 440 kts 153°
2026-04-29 19:16 51.04444 -0.89303 31764 ft 436 kts 154°
2026-04-29 19:17 51.01680 -0.87314 32069 ft 436 kts 154°
2026-04-29 19:17 50.98925 -0.85327 32383 ft 434 kts 154°
2026-04-29 19:17 50.96175 -0.83346 32767 ft 432 kts 154°
2026-04-29 19:17 50.93492 -0.81411 33141 ft 429 kts 154°
2026-04-29 19:18 50.90776 -0.79461 33535 ft 427 kts 154°
2026-04-29 19:18 50.89865 -0.78808 33653 ft 426 kts 154°
2026-04-29 19:18 50.85394 -0.75491 34018 ft 429 kts 150°
2026-04-29 19:18 50.82875 -0.72987 34300 ft 427 kts 146°
2026-04-29 19:19 50.80394 -0.70430 34711 ft 422 kts 147°
2026-04-29 19:19 50.77932 -0.67913 34972 ft 422 kts 147°
2026-04-29 19:19 50.75458 -0.65400 35135 ft 423 kts 147°
2026-04-29 19:20 50.70470 -0.60353 35189 ft 426 kts 147°
2026-04-29 19:20 50.65547 -0.55383 35192 ft 422 kts 147°
2026-04-29 19:21 50.60614 -0.50398 35185 ft 421 kts 147°
2026-04-29 19:21 50.55663 -0.45411 35166 ft 426 kts 147°
2026-04-29 19:22 50.50643 -0.40368 35162 ft 429 kts 147°
2026-04-29 19:22 50.45613 -0.35326 35190 ft 428 kts 147°
2026-04-29 19:23 50.40630 -0.30341 35184 ft 427 kts 148°
2026-04-29 19:23 50.35629 -0.25358 35172 ft 426 kts 148°
2026-04-29 19:24 50.30622 -0.20381 35134 ft 428 kts 148°
2026-04-29 19:24 50.26441 -0.16225 35137 ft 429 kts 148°
2026-04-29 19:25 50.21391 -0.11241 35123 ft 430 kts 148°
2026-04-29 19:25 50.16319 -0.06238 35131 ft 431 kts 149°
2026-04-29 19:26 50.10342 -0.00650 35108 ft 431 kts 156°
2026-04-29 19:26 50.05563 0.01772 35104 ft 431 kts 166°
2026-04-29 19:27 49.99787 0.04027 35111 ft 431 kts 166°
2026-04-29 19:27 49.93962 0.06311 35100 ft 432 kts 168°
2026-04-29 19:28 49.87186 0.08985 35092 ft 433 kts 167°
2026-04-29 19:28 49.82286 0.10900 35096 ft 433 kts 167°
2026-04-29 19:29 49.76477 0.13170 35089 ft 433 kts 167°
2026-04-29 19:29 49.70634 0.15445 35077 ft 434 kts 168°
2026-04-29 19:30 49.64772 0.17737 35065 ft 435 kts 167°
2026-04-29 19:30 49.58909 0.20103 35067 ft 436 kts 167°
2026-04-29 19:31 49.53049 0.22482 35087 ft 436 kts 167°
2026-04-29 19:31 49.47210 0.24836 35075 ft 436 kts 167°
2026-04-29 19:32 49.41332 0.27184 35079 ft 437 kts 168°
2026-04-29 19:32 49.35450 0.29526 35080 ft 437 kts 168°
2026-04-29 19:33 49.29563 0.31872 35067 ft 437 kts 167°
2026-04-29 19:33 49.23694 0.34331 35065 ft 437 kts 166°
2026-04-29 19:34 49.17847 0.36830 35077 ft 437 kts 166°
2026-04-29 19:34 49.11987 0.39309 35072 ft 437 kts 167°
2026-04-29 19:35 49.06166 0.41747 35070 ft 436 kts 166°
2026-04-29 19:35 49.00311 0.44200 35068 ft 436 kts 167°
2026-04-29 19:36 48.94456 0.46637 35060 ft 437 kts 167°
2026-04-29 19:36 48.88589 0.49075 35053 ft 437 kts 167°
2026-04-29 19:37 48.82708 0.51503 35051 ft 438 kts 167°
2026-04-29 19:37 48.76826 0.53929 35052 ft 438 kts 167°
2026-04-29 19:38 48.70936 0.56261 35053 ft 438 kts 168°
2026-04-29 19:38 48.65031 0.58543 35035 ft 438 kts 168°
2026-04-29 19:39 48.59183 0.60806 35054 ft 437 kts 168°
2026-04-29 19:39 48.53301 0.63100 35047 ft 436 kts 168°
2026-04-29 19:40 48.47428 0.65432 35050 ft 436 kts 167°
2026-04-29 19:40 48.41626 0.67821 35047 ft 435 kts 167°
2026-04-29 19:41 48.35746 0.70233 35039 ft 435 kts 167°
2026-04-29 19:41 48.29952 0.72578 35031 ft 434 kts 167°
2026-04-29 19:42 48.24105 0.74932 35027 ft 434 kts 167°
2026-04-29 19:42 48.18265 0.77236 35030 ft 434 kts 168°
2026-04-29 19:43 48.12429 0.79516 35018 ft 433 kts 168°
2026-04-29 19:43 48.06632 0.81789 35017 ft 433 kts 168°
2026-04-29 19:44 48.00808 0.84079 35007 ft 433 kts 168°
2026-04-29 19:44 47.94992 0.86350 34994 ft 433 kts 168°
2026-04-29 19:45 47.89152 0.88617 34998 ft 434 kts 168°
2026-04-29 19:45 47.83304 0.90885 34987 ft 434 kts 168°
2026-04-29 19:46 47.77498 0.93133 34982 ft 435 kts 168°
2026-04-29 19:46 47.71641 0.95397 34983 ft 435 kts 168°
2026-04-29 19:47 47.65788 0.97656 34989 ft 435 kts 168°
2026-04-29 19:47 47.59937 0.99911 34979 ft 435 kts 168°
2026-04-29 19:48 47.54118 1.02153 34980 ft 434 kts 168°
2026-04-29 19:48 47.48229 1.04410 34986 ft 434 kts 168°
2026-04-29 19:49 47.42353 1.06267 34977 ft 431 kts 178°
2026-04-29 19:49 47.36387 1.06262 34986 ft 428 kts 183°
2026-04-29 19:50 47.30382 1.06122 34980 ft 428 kts 183°
2026-04-29 19:50 47.24398 1.06006 34984 ft 428 kts 183°
2026-04-29 19:51 47.18442 1.05876 34974 ft 427 kts 183°
2026-04-29 19:51 47.12493 1.05733 34988 ft 427 kts 183°
2026-04-29 19:52 47.06562 1.05594 34980 ft 426 kts 182°
2026-04-29 19:52 47.00639 1.05451 34982 ft 426 kts 183°
2026-04-29 19:53 46.94711 1.05209 34982 ft 425 kts 184°
2026-04-29 19:53 46.88793 1.04923 34983 ft 425 kts 184°
2026-04-29 19:54 46.79934 1.04529 34957 ft 425 kts 183°
2026-04-29 19:54 46.74018 1.04283 34973 ft 425 kts 183°
2026-04-29 19:55 46.68114 1.04040 34969 ft 425 kts 183°
2026-04-29 19:55 46.64202 1.03873 34963 ft 425 kts 183°